Regional Weather Roundup
Issued by NWS

Home | Current Version | Previous Version | Text Only | Print | Product List | Glossary On
Versions: 1 2 3 4 5 6 7 8 9 10 11 12 13 14 15 16 17 18 19 20 21 22 23 24 25 26 27 28 29 30 31 32 33 34 35 36 37 38 39 40 41 42 43 44 45 46 47 48 49 50
000
ASUS46 KSEW 220210
RWRWA

WASHINGTON REGIONAL WEATHER ROUNDUP
NATIONAL WEATHER SERVICE SEATTLE WA
600 PM PST WED FEB 21 2018

NOTE:"FAIR" INDICATES FEW OR NO CLOUDS BELOW 12,000 FEET WITH NO
SIGNIFICANT WEATHER AND/OR OBSTRUCTIONS TO VISIBILITY.

WAZ507-509-555>559-220300-
SEATTLE, TACOMA, EVERETT, AND VICINITY

CITY           SKY/WX    TMP DP  RH WIND       PRES   REMARKS
EVERETT        LGT SNOW  30  26  85 E6        30.20S FOG
BOEING FIELD   CLOUDY    32  28  85 SE12      30.22F WCI  23
RENTON         CLOUDY    33  28  81 E6        30.22F
SEATAC AIRPORT CLOUDY    31  27  85 SE10      30.20F WCI  22
JBLM-MCCHORD   LGT SNOW  31  31  99 S7        30.21F FOG
PUYALLUP         N/A     32  30  93 CALM      30.20F
BREMERTON      CLOUDY    31  26  82 VRB3      30.19F
JBLM-FT LEWIS  MOCLDY    31  31  99 E7        30.20F
TACOMA NARROWS CLOUDY    32  29  88 S7        30.20F FOG
$$

WAZ001-503-506-510-514-515-220300-
NORTH INTERIOR

CITY           SKY/WX    TMP DP  RH WIND       PRES   REMARKS
BELLINGHAM     LGT SNOW  29  26  89 E6        30.23S FOG
FRIDAY HARBOR  LGT SNOW  31  28  89 E9        30.22F FOG
EASTSOUND      LGT SNOW  32  30  93 S6        30.21S
PORT ANGELES   LGT SNOW  30  30 100 CALM      30.19F VSB 3/4
EDIZ HOOK      LGT SNOW  31  30  95 S5        30.21S
PORT TOWNSEND  LGT SNOW  30  28  93 CALM      30.22S VSB 1
NAS WHIDBEY    LGT SNOW  32  28  85 E10       30.26F FOG     WCI  24
ARLINGTON      LGT SNOW  29  26  89 CALM      30.24S FOG
BURLINGTON     CLOUDY    28  27  93 E5        30.24S FOG
$$

WAZ020-022-039-040-504-511-512-220300-
SOUTHWEST INTERIOR

CITY           SKY/WX    TMP DP  RH WIND       PRES   REMARKS
SHELTON        CLOUDY    33  30  88 CALM      30.17F
OLYMPIA        LGT SNOW  32  29  88 S7        30.21F FOG
CHEHALIS       MOCLDY    34  30  86 S8        30.22F
KELSO          LGT RAIN  34  29  82 SE7       30.25F
VANCOUVER      CLOUDY    35  26  69 E5        30.25F
SCAPPOOSE, OR  CLOUDY    33  26  75 CALM      30.25F
PORTLAND, OR   FLURRIES  35  26  69 S5        30.26F
$$

WAZ021-516-517-220300-
WASHINGTON COAST

CITY           SKY/WX    TMP DP  RH WIND       PRES   REMARKS
FORKS          CLOUDY    32  30  92 E5        30.17F
HOQUIAM        LGT SNOW  35  31  85 SE6       30.19F FOG
ASTORIA, OR    CLOUDY    37  32  82 E7        30.21F
$$

WAZ019-023-024-040-567>569-220300-
CASCADE MOUNTAINS AND COLUMBIA GORGE

CITY           SKY/WX    TMP DP  RH WIND       PRES   REMARKS
STAMPEDE PASS  LGT SNOW  17  15  92 CALM      29.98S FOG
TROUTDALE, OR  CLOUDY    35  27  72 SW6       30.27F
HOOD RIVER, OR CLOUDY    30  21  69 CALM      30.22F
THE DALLES, OR CLOUDY    30  18  60 SE5       30.25F
$$

WAZ026-027-041>044-520-521-220300-
EAST SLOPES

CITY           SKY/WX    TMP DP  RH WIND       PRES   REMARKS
OMAK           LGT SNOW  19  16  88 N10       30.20F FOG     WCI   7
WENATCHEE      FAIR      24  11  57 NW7       30.16S
ELLENSBURG     MOCLDY    27  14  58 CALM      30.11F
YAKIMA         CLOUDY    30  16  56 SE7       30.17F
SUNNYSIDE ARPT CLOUDY    27  14  57 E5        30.21S
YAKIMA TC      CLOUDY    26  14  58 S5        30.13F
$$

WAZ028-034-035-220300-
COLUMBIA BASIN

CITY           SKY/WX    TMP DP  RH WIND       PRES   REMARKS
EPHRATA        CLOUDY    26  10  50 SE9       30.15S
MOSES LAKE     CLOUDY    28  12  51 SE9       30.17F
PASCO          FAIR      30  16  56 SW8       30.24F
RICHLAND ARPT  MOCLDY    30  17  57 S5        30.24F
HERMISTON, OR  FAIR      27  18  69 SW5       30.22F
$$

WAZ036>038-220300-
NORTHEAST WASHINGTON

CITY           SKY/WX    TMP DP  RH WIND       PRES   REMARKS
SPOKANE GEIGER CLOUDY    20  12  71 SE7       30.12F
SPOKANE FELTS  CLOUDY    22  12  65 SE3       30.15F
FAIRCHILD AFB  CLOUDY    19  12  73 SE3       30.10S
COEURDALENE,ID FAIR      15   6  67 CALM      30.12F
DEER PARK      CLOUDY    18   7  62 N3        30.14F
$$

WAZ029>033-220300-
SOUTHEAST WASHINGTON

CITY           SKY/WX    TMP DP  RH WIND       PRES   REMARKS
PULLMAN        CLOUDY    20  16  84 CALM      30.12F
LEWISTON, ID   FAIR      27  18  69 W6        30.16F
WALLA WALLA    MOCLDY    29  18  63 S5        30.17F
PENDLETON, OR  MOCLDY    24  17  74 S5        30.16F
$$



USA.gov is the U.S. government's official web portal to all federal, state and local government web resources and services.